Location: Leiter
(44.7178°N, 106.2687°W)
Time: 15:15:07
(UTC+00:00)

ESTCUBE 1 - Visible Passes

Search period start: 26 June 2022 00:00
Search period end: 06 July 2022 00:00
Orbit: 644 x 659 km, 97.9° (Epoch: 26 June)

Date Brightness Start Highest point End Pass type
(mag) Time Alt. Az. Time Alt. Az. Time Alt. Az.
26 Jun ? 04:37:51 21° SE 04:40:25 42° ENE 04:44:38 10° N visible
26 Jun ? 06:15:40 17° WSW 06:17:21 20° W 06:20:41 10° NW visible
27 Jun ? 05:05:10 30° SSE 05:07:20 79° ENE 05:11:50 10° N visible
27 Jun ? 06:43:35 10° WSW 06:44:39 11° W 06:45:44 10° WNW visible
28 Jun ? 03:55:09 10° ESE 03:58:03 17° ENE 04:00:57 10° NNE visible
28 Jun ? 05:32:28 31° SSW 05:34:22 54° W 05:38:46 10° NNW visible
29 Jun ? 04:21:58 16° ESE 04:24:48 30° ENE 04:28:41 10° N visible
29 Jun ? 05:59:47 22° SW 06:01:30 29° W 06:05:24 10° NW visible
30 Jun ? 04:49:17 25° SE 04:51:40 54° ENE 04:56:02 10° N visible
30 Jun ? 06:27:06 13° WSW 06:28:44 16° W 06:31:28 10° NW visible
01 Jul ? 03:40:37 10° E 03:42:30 13° ENE 03:44:24 10° NE visible
01 Jul ? 05:16:36 32° S 05:18:36 80° WSW 05:23:07 10° NNW visible
02 Jul ? 04:06:05 11° ESE 04:09:12 22° ENE 04:12:36 10° NNE visible
02 Jul ? 05:43:54 28° SSW 05:45:41 41° W 05:49:56 10° NNW visible
03 Jul ? 04:33:24 20° SE 04:35:59 38° ENE 04:40:08 10° N visible
03 Jul ? 06:11:13 18° WSW 06:12:51 22° W 06:16:22 10° NW visible
04 Jul ? 05:00:42 30° SSE 05:02:52 72° ENE 05:07:21 10° N visible
04 Jul ? 06:38:32 10° WSW 06:40:08 12° W 06:41:51 10° WNW visible
05 Jul ? 03:50:56 10° E 03:53:36 16° ENE 03:56:18 10° NNE visible
05 Jul ? 05:28:01 33° SSW 05:29:52 60° W 05:34:19 10° NNW visible
